Theta_e
303 303 303 304 304 304 304 304 304 303 303 302 301 301 301 302 302 303 305 307 306 306 307 314 313 312 310 312 310 310 307 306 307 309 310 313 314 316 317 317 317 321 324 333 347
303 303 303 303 303 303 303 303 303 303 303 303 303 301 301 301 303 306 309 308 308 306 307 313 313 314 313 312 310 306 304 306 308 309 312 313 313 314 315 315 316 318 326 343 350
303 303 303 303 303 303 303 303 302 303 303 303 302 302 302 302 304 308 314 315 315 313 307 310 312 312 311 308 308 307 308 307 310 312 313 312 313 314 314 313 315 317 322 342 352
303 303 303 303 303 303 303 303 303 303 303 302 302 302 308 306 305 309 315 316 315 313 311 307 313 312 307 305 307 306 306 309 310 312 313 312 314 313 313 314 316 316 316 331 351
300 300 299 299 299 299 299 300 300 302 302 302 301 304 307 307 307 307 310 316 313 309 316 309 313 312 308 306 308 306 307 308 310 310 311 311 310 311 312 313 314 315 316 317 339
298 298 298 297 297 298 298 298 298 298 298 300 302 305 306 307 308 308 307 307 307 307 311 314 312 314 310 307 307 309 308 309 310 310 310 310 310 311 313 314 314 315 317 317 326
297 297 297 297 297 297 297 298 298 298 298 298 299 307 306 306 306 307 307 306 312 313 314 315 315 314 312 309 311 310 309 308 307 309 309 310 309 309 312 313 314 316 317 325 333
297 297 297 297 297 297 297 298 298 298 298 298 300 306 307 305 304 305 305 306 309 317 317 316 316 314 311 311 311 308 307 308 307 307 309 310 310 311 313 313 314 316 319 326 333
296 296 296 296 297 297 298 298 299 299 300 303 306 306 306 306 306 306 308 308 307 314 318 318 316 317 314 311 310 310 311 307 311 307 309 308 309 310 313 313 314 315 316 325 332
296 295 295 296 296 297 299 299 299 301 306 306 306 307 306 305 307 311 313 314 308 309 308 310 315 314 313 312 318 311 313 314 312 310 308 308 309 311 312 313 314 315 315 327 333
295 295 296 296 297 299 300 301 300 303 308 308 308 306 305 306 312 310 313 314 310 309 308 310 318 318 317 317 314 311 312 312 312 312 311 308 308 308 309 310 311 314 315 316 326
296 296 297 297 299 301 303 303 302 303 302 302 302 304 303 303 307 306 313 313 311 314 308 313 318 316 315 316 315 312 314 313 313 311 310 311 310 309 309 309 311 313 314 315 316
298 299 299 300 301 305 306 303 301 301 301 301 301 303 304 306 306 307 308 312 313 315 309 313 316 316 315 315 314 314 314 312 313 312 312 312 311 312 312 310 312 313 315 315 316
299 300 301 301 304 305 306 305 304 303 300 301 306 308 309 310 311 312 310 309 314 315 312 312 313 316 316 316 314 314 315 313 313 312 312 311 310 311 312 311 311 312 314 315 315
300 301 302 305 304 305 305 306 305 303 304 303 310 308 312 312 312 314 314 311 311 313 317 317 316 317 317 317 316 315 316 315 316 311 311 311 310 310 312 314 313 315 319 318 315
300 301 304 304 303 304 304 305 304 308 306 305 307 309 310 310 312 314 315 313 312 311 315 315 317 317 318 317 316 316 316 316 311 308 310 309 310 310 312 321 318 318 324 324 322
300 301 305 304 303 303 304 305 308 307 304 306 309 310 310 311 312 313 314 314 315 315 314 318 319 317 319 318 317 316 316 312 311 310 312 309 310 310 322 321 320 320 323 327 327
301 302 304 302 303 303 305 306 307 305 306 308 309 309 311 312 314 314 311 315 314 317 315 319 320 320 319 319 319 316 314 310 313 311 310 310 311 315 323 323 323 322 323 326 327
301 302 302 302 303 304 305 305 307 310 309 310 309 311 311 311 313 315 312 315 316 318 320 322 320 318 318 317 317 318 316 309 309 311 311 315 324 324 323 323 324 322 322 322 326
302 302 302 303 303 304 302 304 309 306 308 310 311 310 311 311 313 315 313 314 315 317 319 320 324 319 320 318 318 317 314 314 311 315 316 326 325 326 327 327 325 323 322 322 323
302 302 302 303 303 303 304 306 305 305 307 308 311 312 311 312 313 314 315 316 315 317 317 321 321 321 320 322 321 317 316 313 310 314 320 325 326 322 324 323 324 322 322 321 322
301 298 302 303 302 302 305 304 304 307 307 308 308 310 311 310 312 314 315 317 318 318 320 320 320 320 319 319 319 317 314 310 312 320 317 318 328 323 321 320 321 320 316 316 318
301 301 302 303 304 304 304 305 306 307 308 309 308 306 309 314 314 314 314 318 318 318 319 321 322 323 323 320 320 319 316 311 313 317 320 320 325 322 322 323 320 315 313 312 312
301 300 302 302 303 304 304 305 306 306 307 308 310 309 308 312 312 315 315 319 319 319 319 320 319 316 320 320 319 319 317 314 317 317 320 320 327 327 324 321 317 313 311 310 310
301 299 301 304 303 303 304 305 305 308 307 307 310 310 312 312 314 315 314 314 317 315 317 321 321 322 320 320 319 316 316 314 316 317 318 324 326 326 323 320 314 311 310 310 309
302 301 301 302 302 303 305 305 305 307 308 309 309 309 311 313 313 314 314 316 319 317 317 318 321 321 323 323 322 319 317 316 318 323 324 324 327 322 320 314 313 311 310 308 308
302 302 301 303 303 304 305 305 306 306 307 307 308 310 311 312 311 311 311 312 313 317 319 319 320 317 323 324 324 324 325 321 323 323 323 325 324 322 316 314 312 310 309 307 306
Wind_Speed
24 24 23 23 23 24 24 23 22 22 22 23 23 23 23 24 25 26 32 26 22 13 19 14 12 12 20 14 12 8 2 4 6 6 5 2 2 4 3 5 5 7 17 18 13
25 25 26 26 26 26 25 25 25 24 24 24 24 24 25 24 26 32 26 23 21 22 24 26 16 16 11 10 11 6 4 10 7 6 3 3 3 7 2 6 6 10 15 9 16
26 26 27 28 28 28 27 27 26 25 24 25 25 25 23 20 24 7 1 4 5 8 26 24 23 17 9 9 10 8 7 6 5 8 13 7 3 9 4 5 7 9 8 8 21
27 28 28 28 29 29 30 30 29 28 26 26 26 22 13 12 7 3 8 4 4 5 16 25 19 14 7 8 11 4 9 6 12 17 6 5 6 8 9 10 15 14 12 13 22
28 29 30 31 32 31 31 31 32 30 28 28 26 19 12 9 28 17 12 14 15 15 18 27 28 23 9 7 8 4 3 12 27 23 17 19 15 13 8 15 25 24 23 24 25
29 30 31 32 32 33 33 34 33 32 32 30 27 15 17 20 33 18 14 24 29 25 22 27 19 24 14 6 9 7 16 16 11 13 11 9 12 10 5 9 13 21 21 23 26
31 32 33 35 36 38 38 37 37 36 33 32 28 17 25 40 29 27 28 22 14 14 22 29 13 23 10 3 19 12 3 5 6 15 8 10 14 7 17 16 24 19 16 20 22
34 34 34 35 35 37 39 39 37 38 37 32 28 18 24 27 35 41 38 38 23 22 22 20 28 15 7 3 2 5 6 9 6 9 8 12 8 3 9 11 20 23 19 20 21
35 36 37 37 38 39 42 44 39 26 22 18 13 15 14 15 22 20 20 31 28 29 22 12 16 11 3 4 3 4 4 5 2 10 7 9 4 12 19 20 23 26 21 21 20
37 38 38 38 40 41 46 44 24 17 5 5 5 8 18 17 15 10 6 7 15 16 29 14 11 7 8 8 16 6 6 4 6 8 10 6 3 8 9 9 15 17 19 20 21
38 39 39 40 42 43 42 33 9 6 7 11 15 24 19 19 12 8 10 10 10 13 14 16 10 21 26 22 13 12 4 9 5 7 6 6 6 10 11 6 14 19 19 20 24
38 39 41 42 42 35 23 20 15 11 17 30 39 43 50 41 24 38 14 12 10 8 13 7 26 19 10 14 15 13 6 4 2 4 5 4 5 8 4 6 13 20 20 21 22
38 39 40 41 35 20 20 17 12 14 7 19 26 18 20 14 29 45 32 16 6 10 24 18 5 17 16 17 19 19 14 5 5 2 1 2 5 5 5 6 12 17 19 18 21
37 39 39 34 16 22 15 20 18 15 4 9 5 2 2 5 7 13 21 31 13 18 19 16 14 24 22 21 17 18 10 6 6 4 3 2 4 4 3 6 6 16 17 18 19
39 38 29 18 25 23 19 22 21 1 5 5 2 7 8 6 14 1 11 32 26 17 15 12 12 16 22 22 19 7 15 11 4 4 2 2 4 7 1 3 7 3 11 3 12
39 31 12 22 25 29 25 23 18 2 6 7 1 8 9 16 2 14 11 19 25 19 15 12 17 15 19 19 17 13 13 8 4 4 4 6 5 6 1 3 7 4 8 8 3
39 23 13 23 27 35 23 17 1 3 8 7 10 9 20 8 6 4 8 11 10 15 20 17 18 15 16 16 17 18 16 4 1 2 5 9 6 5 3 4 5 2 5 9 10
39 16 12 23 34 26 17 2 1 5 13 13 13 21 9 7 1 3 9 8 11 6 14 16 14 16 17 20 13 13 11 5 6 5 4 1 7 4 2 4 5 6 9 16 18
38 5 21 29 28 19 6 3 3 5 9 11 16 7 4 6 5 4 2 3 12 4 7 12 8 17 13 10 15 23 10 8 6 1 6 4 2 2 4 5 7 9 15 20 21
32 9 25 34 15 15 4 4 4 12 14 7 6 5 5 6 7 7 5 3 4 2 4 5 5 18 12 12 9 23 12 9 1 5 5 3 5 6 5 7 8 10 18 23 29
19 7 22 34 10 10 4 5 14 22 21 5 3 6 9 11 5 5 2 3 8 5 10 3 4 1 14 6 18 10 12 5 5 4 5 5 3 4 6 6 12 11 19 29 35
15 3 20 33 9 4 7 13 21 14 21 5 6 6 5 7 6 4 4 6 11 0 3 3 2 2 5 7 12 4 13 6 5 2 2 3 3 3 7 7 12 16 19 28 34
17 7 13 21 7 10 8 12 8 18 17 4 4 3 7 4 4 5 5 6 16 7 5 4 2 5 9 7 7 7 5 5 5 4 5 5 3 3 7 7 13 23 24 28 34
11 5 8 8 16 9 14 9 17 25 13 13 6 6 6 3 7 5 10 5 4 5 9 3 3 4 4 7 10 13 13 8 6 4 5 2 11 9 11 12 12 20 26 27 31
11 4 5 6 10 12 15 8 22 15 5 13 5 17 14 4 7 5 7 10 8 9 4 4 3 1 10 16 16 11 15 13 8 6 7 9 15 18 14 15 17 24 27 29 27
9 6 7 17 16 12 8 10 20 21 8 10 9 22 15 4 5 7 7 4 6 6 5 3 2 1 5 10 9 8 13 15 7 8 9 16 10 11 17 26 25 24 26 25 24
13 16 10 9 6 8 7 14 24 22 9 15 20 16 11 9 19 21 12 11 6 6 5 5 3 4 3 3 5 6 2 4 5 1 18 8 10 19 17 16 22 23 26 25 23
Wind_Direction
345 342 340 337 335 334 331 328 324 321 319 316 315 312 309 308 306 296 283 291 277 242 217 213 209 196 193 195 192 185 152 206 209 175 224 316 182 189 212 272 330 320 300 291 264
342 341 338 336 335 333 330 326 324 322 319 315 312 311 310 310 308 293 295 273 260 220 211 202 189 183 180 196 192 168 184 208 202 177 175 258 255 288 260 305 304 308 308 301 221
340 338 334 332 331 329 326 323 321 318 318 314 311 311 311 319 316 292 141 140 108 208 209 210 216 192 190 196 191 201 225 176 201 207 221 245 268 256 185 261 235 287 316 271 189
339 336 333 331 328 326 324 322 319 319 318 311 308 307 311 310 287 254 208 189 350 326 198 195 194 190 193 194 204 228 216 189 212 227 220 221 247 275 223 254 275 265 296 272 205
338 334 332 331 328 325 322 319 318 318 311 305 302 301 293 250 251 253 259 245 260 268 225 193 186 194 179 191 201 205 219 217 234 237 242 263 257 261 268 273 277 271 274 269 238
339 338 335 332 330 327 323 320 317 313 306 302 300 289 259 248 280 282 255 255 253 256 234 202 209 197 196 203 184 210 202 229 235 236 228 223 255 234 310 321 289 281 257 253 234
340 338 336 334 332 329 324 320 315 310 302 298 293 269 254 246 265 269 272 267 242 236 222 218 204 185 192 195 240 250 262 271 208 226 248 260 275 214 254 263 271 278 236 239 235
338 336 334 331 330 327 322 318 314 306 295 288 280 255 255 264 283 267 257 251 230 211 210 217 205 214 201 245 79 146 160 233 198 177 237 166 257 255 218 239 246 248 242 234 230
338 337 336 334 332 328 325 320 321 304 297 282 232 213 261 268 261 280 267 249 246 214 211 185 209 215 209 113 4 230 187 177 180 178 194 177 227 253 241 235 237 245 238 224 222
338 338 337 335 331 329 325 323 324 308 330 132 171 203 253 253 260 310 299 241 206 210 214 209 197 183 206 187 217 190 157 182 173 203 186 177 240 285 269 205 233 230 214 213 215
338 338 337 334 331 331 326 334 339 295 238 225 218 231 257 271 239 278 271 154 182 174 183 179 187 205 198 206 218 192 155 185 187 195 149 208 204 244 262 231 244 248 241 227 217
339 339 336 333 333 334 339 334 315 297 293 278 266 254 260 262 269 253 235 180 176 198 183 167 218 200 189 192 204 232 192 188 252 145 142 186 228 233 228 222 223 234 236 227 229
341 340 336 334 337 355 345 352 336 323 272 286 255 243 251 239 239 255 224 221 191 191 190 198 240 178 190 185 194 211 207 168 131 64 52 114 301 238 243 221 238 238 241 242 234
345 343 337 332 359 342 355 334 330 315 286 274 227 314 285 241 225 261 227 214 215 198 195 223 219 181 189 203 185 205 175 157 149 94 187 114 263 278 237 258 219 228 225 234 238
348 346 342 0 342 347 328 322 327 267 310 321 46 26 313 174 274 112 235 200 213 202 170 207 181 198 200 199 183 198 162 179 143 134 104 284 81 265 341 237 228 61 89 135 236
350 346 351 349 347 337 329 310 316 240 269 303 43 343 305 307 265 323 250 193 209 198 217 219 181 196 197 197 180 156 160 145 73 107 255 194 141 280 93 298 309 1 58 72 111
347 342 340 344 340 337 326 314 249 214 320 320 326 342 317 297 288 26 339 172 164 174 204 196 223 201 166 179 195 162 154 119 121 188 216 179 144 231 320 324 251 292 52 81 90
345 343 354 351 341 336 343 300 277 282 294 323 317 314 288 330 225 117 336 196 225 206 168 188 199 207 185 185 174 183 162 148 154 153 155 191 185 264 35 47 66 88 86 78 83
345 6 2 351 344 344 6 353 303 311 316 309 310 290 284 328 314 295 148 277 209 200 164 187 217 179 190 158 161 187 195 152 106 168 115 166 63 61 71 63 73 86 87 84 84
346 349 2 356 349 344 56 306 284 315 305 301 296 302 305 320 318 341 356 227 296 255 6 222 129 177 191 164 165 181 155 159 18 147 126 209 167 170 166 139 116 106 99 94 99
353 2 359 9 8 21 29 288 303 312 313 289 300 283 278 304 303 295 240 225 201 199 250 315 112 341 176 185 170 148 170 136 136 130 142 139 218 200 156 153 135 118 108 109 110
357 348 357 10 32 357 341 326 308 310 324 272 273 257 264 301 307 313 308 320 182 0 170 157 124 114 177 174 186 134 169 120 133 172 89 115 156 94 126 127 136 114 106 115 119
340 303 355 13 17 354 329 320 320 326 327 324 290 333 295 289 289 248 283 324 156 144 182 199 124 129 117 89 210 212 181 142 112 103 186 127 183 124 126 119 132 117 113 114 120
353 337 336 353 349 341 334 332 335 335 320 328 292 313 305 275 222 293 323 326 53 21 213 200 143 188 178 129 135 189 182 166 136 120 159 193 136 152 141 139 119 111 115 115 119
17 356 326 315 338 328 326 303 335 343 314 327 314 337 344 326 353 355 350 333 45 16 351 207 168 207 130 137 148 152 172 175 171 159 149 172 154 164 151 141 125 121 118 115 115
9 345 310 294 298 326 330 332 333 329 318 318 322 327 325 318 343 311 325 330 18 26 311 226 107 73 81 100 118 143 169 178 163 96 68 116 85 120 107 117 123 125 117 111 117
342 335 289 304 304 328 337 324 322 323 304 308 316 317 314 337 314 299 281 276 274 314 342 19 57 63 39 30 117 78 27 128 107 124 140 145 153 132 126 122 127 127 121 121 123